Location: York
(31.8935°S, 116.7682°E)
Time: 12:41:01
(UTC+08:00)

Transit 2A - All Passes

Search period start: 06 October 2022 00:00
Search period end: 16 October 2022 00:00
Orbit: 601 x 956 km, 66.7° (Epoch: 05 October)

Date Brightness Start Highest point End Pass type
(mag) Time Alt. Az. Time Alt. Az. Time Alt. Az.
06 Oct - 09:15:41 10° N 09:21:21 45° ENE 09:27:21 10° SE daylight
06 Oct - 10:59:37 10° WNW 11:04:46 27° SW 11:10:06 10° S daylight
06 Oct - 18:09:49 10° SSE 18:13:00 15° SE 18:16:03 10° E daylight
06 Oct - 19:51:10 10° SSW 19:56:58 75° WNW 20:02:07 10° NNE visible
07 Oct - 08:42:00 10° NNE 08:47:08 30° ENE 08:52:32 10° SE daylight
07 Oct - 10:24:31 10° NW 10:30:12 38° WSW 10:36:06 10° S daylight
07 Oct - 19:16:47 10° SSW 19:22:36 72° ESE 19:27:46 10° NNE visible
07 Oct - 21:03:35 10° W 21:04:50 11° W 21:06:04 10° WNW visible
08 Oct - 08:08:45 10° NNE 08:12:59 20° ENE 08:17:22 10° ESE daylight
08 Oct - 09:49:43 10° NW 09:55:40 55° WSW 10:01:57 10° SSE daylight
08 Oct - 18:42:32 10° SSW 18:48:09 47° ESE 18:53:11 10° NE visible
08 Oct - 20:27:06 10° WSW 20:30:46 18° WNW 20:34:11 10° NW visible
09 Oct - 07:36:23 10° NE 07:38:53 13° E 07:41:25 10° ESE daylight
09 Oct - 09:15:10 10° NNW 09:21:15 80° WSW 09:27:40 10° SSE daylight
09 Oct - 11:02:42 10° WSW 11:05:29 13° SW 11:08:17 10° SSW daylight
09 Oct - 18:08:26 10° S 18:13:36 32° SE 18:18:18 10° ENE daylight
09 Oct - 19:51:54 10° SW 19:56:38 28° WNW 20:00:58 10° NNW visible
10 Oct - 08:40:51 10° NNW 08:46:53 71° ENE 08:53:15 10° SSE daylight
10 Oct - 10:26:31 10° W 10:30:44 18° SW 10:35:02 10° S daylight
10 Oct - 17:34:33 10° S 17:38:59 22° SE 17:43:06 10° ENE daylight
10 Oct - 19:17:04 10° SW 19:22:27 44° WNW 19:27:16 10° N visible
11 Oct - 08:06:49 10° N 08:12:35 48° ENE 08:18:40 10° SE daylight
11 Oct - 09:50:59 10° WNW 09:56:04 26° SW 10:01:18 10° S daylight
11 Oct - 17:00:58 10° SSE 17:04:17 15° SE 17:07:25 10° E daylight
11 Oct - 18:42:28 10° SSW 18:48:11 70° WNW 18:53:15 10° NNE visible
12 Oct - 07:33:05 10° NNE 07:38:22 32° ENE 07:43:54 10° SE daylight
12 Oct - 09:15:50 10° WNW 09:21:28 36° WSW 09:27:20 10° S daylight
12 Oct - 16:28:39 10° SE 16:29:30 10° SE 16:30:19 10° SE daylight
12 Oct - 18:08:03 10° SSW 18:13:49 77° ESE 18:18:56 10° NNE daylight
13 Oct - 06:59:45 10° NNE 07:04:11 21° ENE 07:08:47 10° ESE daylight
13 Oct - 08:40:59 10° NW 08:46:57 52° WSW 08:53:12 10° SSE daylight
13 Oct - 17:33:47 10° SSW 17:39:22 50° ESE 17:44:23 10° NE daylight
13 Oct - 19:18:35 10° WSW 19:21:55 16° WNW 19:25:04 10° NW visible
14 Oct - 06:27:10 10° NE 06:30:05 14° ENE 06:33:03 10° ESE daylight
14 Oct - 08:06:23 10° NNW 08:12:30 76° WSW 08:18:56 10° SSE daylight
14 Oct - 09:54:17 10° WSW 09:56:47 12° SW 09:59:18 10° SSW daylight
14 Oct - 16:59:40 10° S 17:04:51 33° ESE 17:09:32 10° ENE daylight
14 Oct - 18:43:16 10° SW 18:47:48 26° WNW 18:51:58 10° NNW visible
15 Oct - 07:32:03 10° NNW 07:38:07 75° ENE 07:44:31 10° SSE daylight
15 Oct - 09:17:57 10° W 09:22:01 18° SW 09:26:10 10° S daylight
15 Oct - 16:25:45 10° S 16:30:14 23° SE 16:34:23 10° ENE daylight
15 Oct - 18:08:23 10° SW 18:13:37 41° WNW 18:18:20 10° N daylight
